AirNav   Everest Fuels
 
 1267 users online  

AL76 Mayfield (Private) Airport
Maplesville, Alabama, USA

GOING TO MAPLESVILLE?


FAA INFORMATION EFFECTIVE 28 FEBRUARY 2019

Location

FAA Identifier: AL76
Lat/Long: 32-50-55.4530N / 086-52-11.9580W
32-50.924217N / 086-52.199300W
32.8487369 / -86.8699883
(estimated)
Elevation: 495 ft. / 151 m (estimated)
Variation: 00E (1985)
From city: 5 miles N of MAPLESVILLE, AL
Time zone: UTC -6 (UTC -5 during Daylight Saving Time)
Zip code: 36750

Airport Operations

Airport use: Private use. Permission required prior to landing
Activation date: 06/1987
Control tower: no
ARTCC: ATLANTA CENTER
FSS: ANNISTON FLIGHT SERVICE STATION
Attendance: UNATNDD
Wind indicator: yes
Segmented circle: no

Nearby radio navigation aids

VOR radial/distance  VOR name  Freq  Var
OKWr141/30.2BROOKWOOD VORTAC111.0000E

Airport Services

Runway Information

Runway 2/20

Dimensions: 3200 x 100 ft. / 975 x 30 m
Surface: turf
RUNWAY 2  RUNWAY 20
Traffic pattern: leftleft
Displaced threshold: 200 ft.no
Obstructions: none50 ft. trees, 4000 ft. from runway

Airport Ownership and Management from official FAA records

Ownership: Privately-owned
Owner: JEROME MAYFIELD
958 OLD RANDOLPH RD
MAPLESVILLE, AL 36750
Phone 251-424-0799
Manager: JEROME MAYFIELD
26699 MARTINIQUE DRIVE
ORANGE BEACH, AL 36561
Phone 251-424-0799

Airport Operational Statistics

Aircraft based on the field: 4
Single engine airplanes: 4
    

Instrument Procedures

There are no published instrument procedures at AL76.

Some nearby airports with instrument procedures:

0A8 - Bibb County Airport (12 nm NW)
02A - Chilton County Airport (13 nm E)
KEET - Shelby County Airport (20 nm N)
KEKY - Bessemer Airport (28 nm N)
1A9 - Prattville Airport - Grouby Field (31 nm SE)
 
Loc | Ops | Rwys | IFR | FBO | Links
Com | Nav | Svcs | Stats | Notes
Area around AL76 (Mayfield (Private) Airport)
 
Road maps at: MapQuest Bing Google
 
Aerial photo
No photo
 
Sectional chart

 
Airport distance calculator
Flying to Mayfield (Private) Airport? Find the distance to fly.

From to AL76

Sunrise and sunset
Times for 22-Mar-2019
 Local
(UTC-5)
 Zulu
(UTC)
Morning civil twilight06:2511:25
Sunrise06:5011:50
Sunset18:5923:59
Evening civil twilight19:2400:24

Current date and time
Zulu (UTC)  22-Mar-2019 14:23:44
Local (UTC-5)  22-Mar-2019 09:23:44
 
METAR
KEET 
21nm N 
221353Z AUTO 32006KT 10SM CLR 08/01 A3017 RMK AO2 SLP215 T00830011
KEKY 
28nm N 
221356Z AUTO 32007KT 10SM CLR 08/01 A3018 RMK AO2 SLP241 T00780011
K1A9 
31nm SE 
221355Z AUTO 30007KT 10SM CLR 09/01 A3017 RMK AO2 T00860008
KSEM 
31nm S 
221355Z AUTO 00000KT 10SM 09/02 A3019 RMK AO2
KA08 
33nm SW 
221355Z AUTO 31004KT 10SM CLR 10/03 A3019 RMK AO2 T00990031
KSCD 
34nm NE 
221355Z AUTO 33005KT 10SM OVC110 08/00 A3016 RMK AO2 T00791004
KMXF 
39nm SE 
221356Z AUTO 29004KT 10SM CLR 10/02 A3016 RMK AO2 SLP216 T00950019 $
KMGM 
41nm SE 
221353Z 31006KT 10SM CLR 11/02 A3018 RMK AO2 SLP219 T01060017
TAF
KEET 
21nm N 
221120Z 2212/2312 32004KT P6SM SKC FM221500 30008G15KT P6SM SKC FM230100 00000KT P6SM SKC
NOTAMs
Click for the latest NOTAMs
NOTAMs are issued by the DoD/FAA and will open in a separate window not controlled by AirNav.

 

 
 

Would you like to see your business listed on this page?

 If your business provides an interesting product or service to pilots, flight crews, aircraft, or users of the Mayfield (Private) Airport, you should consider listing it here.  To start the listing process, click on the button below
 
Add a business
 

Other Pages about Mayfield (Private) Airport

Update a link
 
Copyright © AirNav, LLC. All rights reserved. Privacy Policy  Contact